Weather History for KOFK - February, 2013

Change the Weather History Date:

Saturday, February 2, 2013

  Actual Average Record
Temperature  
Mean Temperature 36 °F 24 °F  
Max Temperature 49 °F 34 °F 67 °F (1924)
Min Temperature 23 °F 13 °F -35 °F (1905)
Degree Days  
Heating Degree Days 29 41  
Month to date heating degree days 75 82  
Since 1 July heating degree days 3957 4104  
Cooling Degree Days 0 0  
Month to date cooling degree days 0 0  
Year to date cooling degree days 0 0  
Moisture  
Dew Point 23 °F    
Average Humidity 63    
Maximum Humidity 81    
Minimum Humidity 45    
Precipitation  
Precipitation T in 0.03 in 0.40 in (1919)
Month to date precipitation 0.01 0.05  
Year to date precipitation 0.25 0.64  
Snow  
Snow T in 0.20 in - ()
Month to date snowfall T 0.4  
Since 1 July snowfall 7.8 17.7  
Snow Depth 0.00 in    
Sea Level Pressure  
Sea Level Pressure 30.14 in    
Wind  
Wind Speed 11 mph (NW)    
Max Wind Speed 35 mph    
Max Gust Speed 43 mph    
Visibility 10 miles    
Events Snow    
T = Trace of Precipitation, MM = Missing Value Source: NWS Daily Summary

Daily Weather History Graph

Daily Weather History Graph

Search for Another Location

Airport or City:

Trip Planner

Search our weather history database for the weather conditions in past years. The results will help you decide how hot, cold, wet, or windy it might be!

Date:

Astronomy

Feb. 02, 2013 Rise Set
Actual Time 7:41 AM CST 5:46 PM CST
Civil Twilight 7:11 AM CST 6:15 PM CST
Nautical Twilight 6:38 AM CST 6:49 PM CST
Astronomical Twilight 6:05 AM CST 7:21 PM CST
Moon 12:01 AM CST (2/2) 10:44 AM CST (2/2)
Length of Visible Light 11h 04m
Length of Day
10h 05m
Waning Gibbous, 59% of the Moon is Illuminated
Feb 2
Waning Gibbous
Feb 3
Last Quarter
Feb 10
New
Feb 17
First Quarter
Feb 25
Full

Hourly Weather History & Observations

Time (CST) Temp. Windchill Dew Point Humidity Pressure Visibility Wind Dir Wind Speed Gust Speed Precip Events Conditions
12:56 AM 28.0 °F 21.7 °F 19.9 °F 72% 30.12 in 10.0 mi WNW 5.8 mph - N/A   Overcast
1:37 AM 26.6 °F 21.2 °F 19.4 °F 74% 30.07 in 10.0 mi WNW 4.6 mph - N/A   Mostly Cloudy
1:56 AM 27.0 °F 23.0 °F 21.0 °F 78% 30.12 in 10.0 mi WNW 3.5 mph - N/A   Overcast
2:10 AM 26.6 °F 21.2 °F 21.2 °F 80% 30.07 in 10.0 mi West 4.6 mph - N/A   Overcast
2:56 AM 28.0 °F 21.7 °F 21.0 °F 75% 30.14 in 10.0 mi NW 5.8 mph - N/A   Overcast
3:56 AM 27.0 °F 20.5 °F 21.0 °F 78% 30.13 in 10.0 mi NNW 5.8 mph - N/A   Overcast
4:08 AM 26.6 °F 21.2 °F 21.2 °F 80% 30.08 in 10.0 mi NW 4.6 mph - N/A   Overcast
4:56 AM 26.1 °F 18.4 °F 21.0 °F 81% 30.16 in 10.0 mi North 6.9 mph - N/A   Overcast
5:56 AM 26.1 °F 18.4 °F 21.0 °F 81% 30.17 in 10.0 mi North 6.9 mph - N/A   Overcast
6:29 AM 24.8 °F - 21.2 °F 86% 30.13 in 10.0 mi Calm Calm - N/A   Overcast
6:56 AM 25.0 °F 20.7 °F 19.9 °F 81% 30.19 in 10.0 mi NNE 3.5 mph - N/A   Overcast
7:12 AM 24.8 °F 16.9 °F 19.4 °F 80% 30.13 in 10.0 mi North 6.9 mph - N/A   Overcast
7:56 AM 24.1 °F 19.7 °F 19.0 °F 81% 30.19 in 10.0 mi NNE 3.5 mph - N/A   Overcast
8:56 AM 24.1 °F 18.2 °F 19.0 °F 81% 30.20 in 10.0 mi ENE 4.6 mph - N/A   Overcast
9:03 AM 24.8 °F 19.1 °F 17.6 °F 74% 30.15 in 10.0 mi ENE 4.6 mph - N/A   Overcast
9:13 AM 24.8 °F 19.1 °F 19.4 °F 80% 30.14 in 10.0 mi East 4.6 mph - N/A   Overcast
9:28 AM 23.0 °F 18.4 °F 19.4 °F 86% 30.14 in 10.0 mi East 3.5 mph - N/A   Overcast
9:56 AM 24.1 °F - 19.0 °F 81% 30.20 in 3.0 mi Calm Calm - 0.00 in Snow Light Snow
10:56 AM 25.0 °F 18.1 °F 19.9 °F 81% 30.19 in 7.0 mi SE 5.8 mph - 0.00 in   Overcast
11:44 AM 28.4 °F 21.2 °F 21.2 °F 74% 30.12 in 10.0 mi SSE 6.9 mph - N/A   Overcast
11:56 AM 28.9 °F 21.1 °F 23.0 °F 78% 30.17 in 10.0 mi South 8.1 mph - N/A   Overcast
12:41 PM 35.6 °F 29.2 °F 26.6 °F 70% 30.09 in 10.0 mi SSW 8.1 mph - N/A   Scattered Clouds
12:56 PM 37.0 °F 32.4 °F 28.9 °F 73% 30.13 in 10.0 mi SW 5.8 mph - N/A   Partly Cloudy
1:56 PM 43.0 °F 39.5 °F 30.9 °F 62% 30.09 in 10.0 mi WSW 5.8 mph - N/A   Partly Cloudy
2:56 PM 46.9 °F - 32.0 °F 56% 30.04 in 10.0 mi West 8.1 mph - N/A   Scattered Clouds
4:56 PM 46.9 °F - 26.1 °F 44% 30.05 in 10.0 mi NW 25.3 mph 33.4 mph N/A   Overcast
6:56 PM 39.9 °F 31.8 °F 28.0 °F 63% 30.11 in 10.0 mi NW 15.0 mph - N/A   Clear
7:56 PM 39.0 °F 31.0 °F 28.0 °F 65% 30.12 in 10.0 mi NW 13.8 mph - N/A   Clear
8:56 PM 39.0 °F 28.8 °F 26.1 °F 60% 30.12 in 10.0 mi NW 21.9 mph 29.9 mph N/A   Clear
9:56 PM 37.0 °F 26.2 °F 24.1 °F 59% 30.14 in 10.0 mi NW 21.9 mph 32.2 mph N/A   Clear
10:56 PM 35.1 °F 22.2 °F 23.0 °F 61% 30.16 in 10.0 mi NNW 27.6 mph 41.4 mph N/A   Mostly Cloudy
11:56 PM 33.1 °F 21.5 °F 23.0 °F 66% 30.20 in 10.0 mi NW 19.6 mph 33.4 mph N/A   Clear